Home   Weather   Cuttack   Past weeks

Flag for India Past Weather in Cuttack, Odisha, India — Yesterday and Last 2 Weeks

Now
81 °F

Partly cloudy.


Feels Like: 88 °F
Forecast: 81 / 90 °F
Wind: 5 mph from Southwest

Location: Bhubaneswar Airport

Current Time: Jul 26, 2017 at 4:30:34 am

Latest Report: Jul 26, 2017 at 4:00 am


Visibility: 2 mi

Pressure: 29.50 "Hg

Humidity: 94%

Dew Point: 79 °F

Location of CuttackLocation

Past Weather in Cuttack — Graph

°F

Cuttack Temperature Yesterday

Maximum temperature yesterday: 90 °F (at 1:00 pm)
Minimum temperature yesterday: 81 °F (at 5:00 am)
Average temperature yesterday: 84 °F

High & Low Weather Summary for the Past Weeks

 TemperatureHumidityPressure
High91 °F (Jul 20, 2:00 pm)100% (Jul 11, 2:30 am)29.65 "Hg (Jul 11, 2:30 am)
Low72 °F (Jul 19, 6:30 pm)70% (Jul 25, 11:00 am)29.30 "Hg (Jul 18, 3:30 pm)
Average82 °F92%29.51 "Hg
* Reported Jul 11 2:30 am — Jul 26 3:00 am, Cuttack. Weather by CustomWeather, © 2017

Note: Actual official high and low records may vary slightly from our data, if they occured in-between our weather recording intervals... More about our weather records

Advertising

Cuttack Weather History for the Previous 24 Hours

Scroll right to see more
 ConditionsComfort  
Time TempWeatherWind HumidityBarometerVisibility
3:00 am
Wed, Jul 26
81 °FPartly cloudy.5 mph94%29.50 "Hg2 mi
2:30 am81 °FPartly cloudy.5 mph94%29.50 "Hg2 mi
2:00 am82 °FPartly cloudy.7 mph89%29.50 "Hg2 mi
1:30 am82 °FPartly cloudy.7 mph89%29.50 "Hg2 mi
1:00 am82 °FPartly cloudy.7 mph89%29.53 "Hg2 mi
12:00 am82 °FPartly cloudy.7 mph89%29.53 "Hg2 mi
11:30 pm
Tue, Jul 25
82 °FPartly cloudy.7 mph89%29.53 "Hg2 mi
11:00 pm81 °FPartly cloudy.5 mph94%29.53 "Hg2 mi
10:30 pm81 °FPartly cloudy.5 mph94%29.53 "Hg2 mi
10:00 pm81 °FPartly cloudy.5 mph94%29.53 "Hg2 mi
9:30 pm81 °FPartly cloudy.5 mph94%29.53 "Hg2 mi
9:00 pm81 °FPartly cloudy.7 mph94%29.53 "Hg2 mi
8:30 pm82 °FPartly cloudy.7 mph94%29.53 "Hg2 mi
8:00 pm82 °FPartly cloudy.7 mph94%29.53 "Hg2 mi
7:30 pm82 °FPassing clouds.7 mph94%29.50 "Hg2 mi
7:00 pm84 °FPassing clouds.2 mph89%29.50 "Hg2 mi
6:30 pm84 °FPartly sunny.2 mph89%29.50 "Hg2 mi
5:30 pm84 °FPartly sunny.7 mph89%29.47 "Hg2 mi
5:00 pm84 °FPartly sunny.7 mph89%29.47 "Hg2 mi
4:30 pm86 °FPartly sunny.2 mph79%29.47 "Hg1 mi
4:00 pm88 °FLight rain. Broken clouds.9 mph75%29.47 "Hg3 mi
3:30 pm90 °FBroken clouds.9 mph71%29.47 "Hg3 mi
3:00 pm90 °FBroken clouds.8 mph71%29.47 "Hg3 mi
2:30 pm90 °FScattered clouds.7 mph71%29.47 "Hg3 mi
2:00 pm90 °FPartly sunny.5 mph71%29.50 "Hg3 mi
1:30 pm90 °FPartly sunny.10 mph71%29.50 "Hg3 mi
1:00 pm90 °FBroken clouds.9 mph71%29.50 "Hg3 mi
12:30 pm88 °FBroken clouds.12 mph75%29.53 "Hg3 mi
12:00 pm88 °FBroken clouds.9 mph75%29.53 "Hg3 mi
11:30 am88 °FBroken clouds.9 mph75%29.53 "Hg3 mi
11:00 am86 °FBroken clouds.12 mph70%29.53 "Hg3 mi
10:30 am86 °FBroken clouds.12 mph75%29.53 "Hg3 mi
10:00 am86 °FBroken clouds.12 mph75%29.53 "Hg2 mi
9:30 am84 °FBroken clouds.9 mph84%29.53 "Hg2 mi
9:00 am82 °FBroken clouds.6 mph84%29.53 "Hg2 mi
8:30 am82 °FMore clouds than sun.6 mph84%29.53 "Hg2 mi
8:00 am82 °FBroken clouds.10 mph94%29.53 "Hg2 mi
7:30 am82 °FBroken clouds.5 mph94%29.53 "Hg2 mi
7:00 am82 °FBroken clouds.3 mph94%29.53 "Hg2 mi
6:30 am82 °FBroken clouds.3 mph94%29.50 "Hg2 mi
6:00 am81 °FBroken clouds.5 mph100%29.50 "Hg2 mi
5:30 am81 °FPartly cloudy.5 mph100%29.50 "Hg2 mi
5:00 am81 °FPartly cloudy.6 mph100%29.47 "Hg2 mi
4:30 am82 °FPartly cloudy.6 mph94%29.47 "Hg2 mi
4:00 am82 °FPartly cloudy.9 mph94%29.47 "Hg2 mi
Weather by CustomWeather, © 2017

See weather overviewHow to use our weather pages